Ephrata, WA
on Saturday, February 2, 2013

Saturday
Previous Day Next Day
Daily Summary
 ActualAverageRecord
Temperature
Mean Temperature °F 32°F  
Max Temperature 41°F 39°F 52°F (2005)
Min Temperature 23°F 24°F -19°F (1996)
Degree Days
Heating Degree Days 33 33  
Month to date heating degree days 65 67  
Since 1 July heating degree days 3501 3775  
Cooling Degree Days 0 0  
Month to date cooling degree days 0 0  
Year to date cooling degree days 0 0  
Moisture
Dew Point 26°F   
Average Humidity 81    
Maximum Humidity 96    
Minimum Humidity 65    
Precipitation
Precipitation 0.00 in 0.03 in 0.30 in (1980)
Month to date precipitation 0.00 0.05  
Year to date precipitation 0.19 0.96  
Wind
Wind Speed 8 mph   
Max Wind Speed 14 mph   
Max Gust Speed 16 mph   
Visibility 10 miles   
Events     

Key: T is trace of precipitation, MM is missing value
Source: NWS Daily Summary
Time(PST)TemperatureDew PointHumidity Pressure Visibility Wind DirectionWind SpeedGust SpeedPrecipitationEvents Conditions
12:53 AM 26.1°F 23.0°F 88% 30.49 in 10.0 miles North 6.9 mph - N/A   Clear
1:53 AM 26.1°F 24.1°F 92% 30.49 in 10.0 miles North 8.1 mph - N/A   Clear
2:53 AM 25.0°F 23.0°F 92% 30.50 in 10.0 miles North 8.1 mph - N/A   Clear
3:53 AM 23.0°F 21.0°F 92% 30.49 in 10.0 miles North 6.9 mph - N/A   Clear
4:53 AM 24.1°F 21.9°F 91% 30.49 in 10.0 miles NNE 8.1 mph - N/A   Clear
5:53 AM 25.0°F 23.0°F 92% 30.49 in 10.0 miles North 11.5 mph - N/A   Clear
6:53 AM 24.1°F 21.9°F 91% 30.50 in 10.0 miles NNE 11.5 mph - N/A   Clear
7:53 AM 25.0°F 23.0°F 92% 30.51 in 10.0 miles North 6.9 mph - N/A   Clear
8:53 AM 30.0°F 27.0°F 88% 30.51 in 10.0 miles North 10.4 mph - N/A   Clear
9:53 AM 33.1°F 28.9°F 85% 30.51 in 10.0 miles North 10.4 mph - N/A   Clear
10:53 AM 36.0°F 28.9°F 76% 30.51 in 10.0 miles North 9.2 mph - N/A   Clear
11:53 AM 37.9°F 30.0°F 73% 30.48 in 10.0 miles North 10.4 mph - N/A   Clear
12:53 PM 39.9°F 30.9°F 70% 30.45 in 10.0 miles North 11.5 mph - N/A   Clear
1:53 PM 41.0°F 30.9°F 67% 30.43 in 10.0 miles North 8.1 mph - N/A   Clear
2:53 PM 41.0°F 30.9°F 67% 30.41 in 10.0 miles North 10.4 mph - N/A   Clear
3:53 PM 39.0°F 30.9°F 73% 30.40 in 10.0 miles North 10.4 mph - N/A   Clear
4:53 PM 35.1°F 28.9°F 78% 30.39 in 10.0 miles North 9.2 mph - N/A   Clear
5:53 PM 30.9°F 28.0°F 89% 30.37 in 10.0 miles North 8.1 mph - N/A   Clear
6:53 PM 30.9°F 28.0°F 89% 30.37 in 10.0 miles North 5.8 mph - N/A   Clear
7:53 PM 30.9°F 28.0°F 89% 30.34 in 10.0 miles North 6.9 mph - N/A   Clear
8:53 PM 27.0°F 25.0°F 92% 30.32 in 10.0 miles North 4.6 mph - N/A   Clear
9:53 PM 28.0°F 25.0°F 88% 30.31 in 10.0 miles NNE 4.6 mph - N/A   Clear
10:53 PM 25.0°F 23.0°F 92% 30.30 in 10.0 miles NNE 6.9 mph - N/A   Clear
11:53 PM 25.0°F 23.0°F 92% 30.29 in 10.0 miles North 6.9 mph - N/A   Clear
Moon Phase
Feb. 02 Feb. 03 Feb. 10 Feb. 17 Feb. 25
Sunrise:07:22 AM (PST) Moon Rise:No Moon Rise/
Sunset:05:02 PM (PST) Moon Set:10:04 AM (PST)2/2

Copyright © 2014 The Weather Underground, Inc.